[[{"header":{"parameterUnit":"m.s-1","parameterCategory":1,"la1":30.2992,"la2":30.254,"lo1":-89.0895,"lo2":-89.0443,"dy":0.0025,"dx":0.0025,"nx":19,"ny":19,"refTime":"2026-03-21T03:00:00:Z","depth":0,"parameterNumber":2,"parameterNumberName":"U-component_of_WINDS"},"data":[0,0,0,4.213,4.2133,4.2285,4.2285,4.2488,4.249,0,0,0,0,0,0,0,0,0,0,0,4.209,4.2091,4.2129,4.2133,4.2285,4.2285,4.2487,4.249,0,0,0,0,0,0,0,0,0,0,0,4.2089,4.2091,4.2093,4.2134,4.2285,4.2285,4.2487,4.237,0,0,0,0,0,0,0,0,0,0,4.2221,4.2189,4.209,4.2093,4.2135,4.2284,4.2285,4.2364,4.2377,4.2423,0,4.2464,0,4.248,4.2504,4.2504,0,0,0,4.213,4.2178,4.2214,4.2093,4.2136,4.2284,4.2215,4.2371,4.2386,4.244,4.2467,4.2475,4.2484,4.2505,4.2506,4.278,4.2782,0,0,4.2121,4.212,4.2204,4.2224,4.2201,4.2211,4.222,4.238,4.241,4.2468,4.2479,4.2487,4.2506,4.2508,4.2779,4.2781,0,0,0,4.21,4.2114,4.2146,4.2216,4.2243,4.2215,4.2226,4.2402,4.2413,4.2481,4.2489,4.2508,4.251,4.2777,4.278,4.2849,0,0,0,4.2095,4.2102,4.2143,4.2144,4.224,4.2324,4.2245,4.2402,4.242,4.2488,4.2508,4.2512,4.2776,4.2779,4.2844,4.2882,0,0,0,4.2078,4.21,4.2123,4.2143,4.2208,4.2322,4.2342,4.2406,4.2425,4.2505,4.2513,4.2775,4.2778,4.2839,4.2874,4.2953,0,0,0,4.206,4.2184,4.2124,4.2265,4.2207,4.2364,4.234,4.2458,4.2534,4.2509,4.2776,4.2779,4.2837,4.2869,4.2948,4.3018,4.3047,0,0,4.2215,4.2202,4.2285,4.2236,4.2403,4.2341,4.2518,4.259,4.2599,4.2719,4.2726,4.2845,4.2874,4.2952,4.3214,4.3237,0,0,0,4.2333,4.2393,4.2437,4.2509,4.2567,4.2619,4.2663,4.269,4.2792,4.2661,4.2896,4.2912,4.2958,4.2992,4.3012,4.3051,4.2795,4.2795,4.2795,4.2549,4.2554,4.2691,4.2714,4.2784,4.2829,4.2886,4.2929,4.2914,4.297,4.3005,4.3164,4.3203,4.3218,4.3259,4.3044,4.3044,4.3044,4.3044,4.2775,4.2859,4.2836,4.296,4.2964,4.3069,4.3116,4.3102,4.32,4.3138,4.3179,4.311,4.3244,4.3279,4.305,4.3049,4.3048,4.3048,4.3047,4.2916,4.2957,4.2987,4.3091,4.3171,4.3191,4.3285,4.3286,4.3288,4.3328,4.3365,4.3364,4.3362,4.3346,4.3347,4.3347,4.3348,4.3348,4.3348,4.305,4.3082,4.3161,4.3232,4.3278,4.3339,4.3385,4.343,4.3481,4.3474,4.3474,4.3453,4.3256,4.3206,4.3357,4.3355,4.3354,4.3353,4.3353,4.3276,4.3225,4.3348,4.3394,4.3476,4.3555,4.3555,4.3648,4.3686,4.3732,4.3703,4.3557,4.3544,4.3529,4.3487,4.3702,4.3702,4.3702,4.3702,4.3394,4.3388,4.3513,4.3586,4.3659,4.3671,4.3809,4.3846,4.3876,4.3899,4.3869,4.3814,4.3798,4.3795,4.3773,4.3734,4.4007,4.4007,4.4008,4.3533,4.3533,4.365,4.3678,4.3743,4.3799,4.3928,4.4014,4.4038,4.402,4.3918,4.3905,4.3817,4.3788,4.3767,4.3734,4.3662,0,0]},{"header":{"parameterUnit":"m.s-1","parameterCategory":1,"la1":30.2992,"la2":30.254,"lo1":-89.0895,"lo2":-89.0443,"dy":0.0025,"dx":0.0025,"nx":19,"ny":19,"refTime":"2026-03-21T03:00:00:Z","depth":0,"parameterNumber":3,"parameterNumberName":"V-component_of_WINDS"},"data":[0,0,0,2.4252,2.4253,2.4287,2.4287,2.4337,2.4337,0,0,0,0,0,0,0,0,0,0,0,2.4247,2.4247,2.4252,2.4253,2.4287,2.4287,2.4337,2.4337,0,0,0,0,0,0,0,0,0,0,0,2.4246,2.4247,2.4248,2.4253,2.4287,2.4287,2.4337,2.4309,0,0,0,0,0,0,0,0,0,0,2.4274,2.4274,2.4247,2.4248,2.4253,2.4287,2.4287,2.4307,2.431,2.4325,0,2.4339,0,2.4339,2.4341,2.4342,0,0,0,2.4249,2.4271,2.4277,2.4248,2.4254,2.4287,2.427,2.4309,2.4312,2.4329,2.434,2.4342,2.434,2.4342,2.4342,2.4439,2.444,0,0,2.4247,2.4255,2.4274,2.4279,2.4275,2.4269,2.4272,2.4311,2.4323,2.434,2.4343,2.4341,2.4342,2.4343,2.4439,2.444,0,0,0,2.4244,2.4254,2.4258,2.4277,2.4283,2.427,2.4273,2.4321,2.4322,2.4343,2.4342,2.4342,2.4343,2.4438,2.4439,2.4479,0,0,0,2.4243,2.4252,2.4257,2.4262,2.4282,2.4303,2.4283,2.4319,2.4323,2.4341,2.4342,2.4344,2.4437,2.4439,2.4476,2.4496,0,0,0,2.4243,2.4252,2.4259,2.4263,2.4278,2.4302,2.4305,2.432,2.4323,2.4342,2.4344,2.4437,2.4438,2.4474,2.4492,2.4525,0,0,0,2.4244,2.4293,2.4259,2.4313,2.4277,2.4326,2.4304,2.434,2.4361,2.4343,2.4437,2.4439,2.4473,2.449,2.4523,2.4554,2.4568,0,0,2.4309,2.4301,2.4331,2.4303,2.436,2.432,2.4383,2.4394,2.4388,2.4422,2.4425,2.4477,2.4492,2.4525,2.4642,2.4653,0,0,0,2.4355,2.4377,2.439,2.4411,2.4422,2.4432,2.4433,2.4437,2.4466,2.4408,2.4497,2.4506,2.4524,2.4539,2.4549,2.4564,2.4446,2.4446,2.4446,2.4458,2.4449,2.4499,2.4495,2.4515,2.4516,2.4531,2.4537,2.4521,2.4542,2.4553,2.4625,2.4643,2.465,2.4666,2.4568,2.4568,2.4568,2.4568,2.4553,2.4584,2.4562,2.4603,2.4593,2.4627,2.463,2.4618,2.4648,2.4616,2.4632,2.4599,2.4662,2.4676,2.4571,2.4571,2.457,2.457,2.457,2.4621,2.4634,2.4639,2.4668,2.4692,2.4685,2.4716,2.4705,2.4694,2.471,2.472,2.472,2.4718,2.4716,2.4716,2.4716,2.4716,2.4717,2.4717,2.4689,2.4693,2.4721,2.4736,2.4749,2.4764,2.4765,2.4777,2.4787,2.4777,2.4777,2.4759,2.467,2.4648,2.4721,2.472,2.4719,2.4719,2.4719,2.479,2.4765,2.4808,2.4821,2.4839,2.4864,2.4849,2.4874,2.4882,2.4898,2.4876,2.4812,2.4802,2.4794,2.4776,2.4878,2.4878,2.4878,2.4878,2.4847,2.4841,2.4883,2.4904,2.4923,2.4915,2.4963,2.4965,2.4963,2.4967,2.4951,2.4926,2.4919,2.4913,2.4903,2.4886,2.5013,2.5013,2.5013,2.4909,2.4905,2.4949,2.4947,2.4961,2.4972,2.5018,2.5042,2.5034,2.5018,2.4971,2.4965,2.4924,2.4912,2.4895,2.488,2.4848,0,0]}]]